Regional Weather Roundup
Issued by NWS

Home | Current Version | Previous Version | Graphics & Text | Print | Product List | Glossary Off
Versions: 1 2 3 4 5 6 7 8 9 10 11 12 13 14 15 16 17 18 19 20 21 22 23 24 25 26 27 28 29 30 31 32 33 34 35 36 37 38 39 40 41 42 43 44 45 46 47 48 49 50

000
ASUS43 KDTX 310010
RWRMI
MICHIGAN HOURLY REGIONAL WEATHER ROUNDUP
NATIONAL WEATHER SERVICE DETROIT/PONTIAC MI
800 PM EDT SUN AUG 30 2015

NOTE: "FAIR" INDICATES FEW OR NO CLOUDS BELOW 12,000 FEET WITH NO
SIGNIFICANT WEATHER AND/OR OBSTRUCTION TO VISIBILITY.

MIZ047>049-052>055-059>063-066>070-074>076-081>083-310100-
SOUTHEAST LOWER MICHIGAN

CITY           SKY/WX    TMP DP  RH WIND       PRES   REMARKS
ADRIAN         CLEAR     77  68  73 NW3       30.02S
6HR MIN TEMP:  77; 6HR MAX TEMP:  84;

ALMA           MOCLDY    73  68  85 CALM      30.02R
ANN ARBOR      PTCLDY    78  68  71 NW7       30.02R
BAD AXE        CLEAR     73  67  82 CALM      30.01R
DETROIT CITY   PTCLDY    78  69  73 SW6       30.00S
6HR MIN TEMP:  78; 6HR MAX TEMP:  83;

DETROIT        CLOUDY    76  72  87 S3        30.01S
6HR MIN TEMP:  74; 6HR MAX TEMP:  85; 6HR PCP:  0.17;

FLINT          CLEAR     77  67  71 W5        30.01S
6HR MIN TEMP:  77; 6HR MAX TEMP:  82;

GROSSE ILE     MOCLDY    75  70  83 CALM      30.00S
HILLSDALE      CLEAR     75  71  87 NW5       30.04S FOG
HOWELL         CLEAR     74  67  77 W5        30.02S
6HR MIN TEMP:  74; 6HR MAX TEMP:  81;


CITY           SKY/WX    TMP DP  RH WIND       PRES   REMARKS
JACKSON        CLEAR     74  68  81 W3        30.02F
6HR MIN TEMP:  74; 6HR MAX TEMP:  79;

LAMBERTVILLE   CLEAR     79  69  72 CALM      30.02R
6HR MIN TEMP:  79; 6HR MAX TEMP:  85;

LANSING        CLEAR     75  66  73 W5        30.02S
6HR MIN TEMP:  75; 6HR MAX TEMP:  79;

LAPEER         NOT AVBL
MASON          CLEAR     75  65  71 CALM      30.02S
6HR MIN TEMP:  75; 6HR MAX TEMP:  80;

MONROE         PTCLDY    75  69  81 NE3       30.01R
6HR MIN TEMP:  75; 6HR MAX TEMP:  83;

MT. CLEMENS    MOCLDY    75  68  79 CALM      29.99S
6HR MIN TEMP:  75; 6HR MAX TEMP:  81;

PONTIAC        PTCLDY    76  67  73 NW5       30.01S
6HR MIN TEMP:  76; 6HR MAX TEMP:  82;

PORT HOPE        N/A     70  66  87 CALM      29.99S
6HR MIN TEMP:  69; 6HR MAX TEMP:  76;

PORT HURON     PTCLDY    73  68  83 CALM      30.00S
TRI CITIES     CLEAR     74  67  78 W5        30.01S
6HR MIN TEMP:  74; 6HR MAX TEMP:  78;

YPSILANTI      PTCLDY    81  69  67 NW5       30.02R
6HR MIN TEMP:  81; 6HR MAX TEMP:  87; 6HR PCP: TRACE;

$$
MIZ043>046-050>051-056>058-064>065-071>073-077>080-310100-
SOUTHWEST LOWER MICHIGAN

CITY           SKY/WX    TMP DP  RH WIND       PRES   REMARKS
BATTLE CREEK   CLEAR     74  67  78 W3        30.03F
6HR MIN TEMP:  74; 6HR MAX TEMP:  79;

BENTON HARBOR  CLEAR     69  65  86 CALM      30.02F
6HR MIN TEMP:  69; 6HR MAX TEMP:  75;

BIG RAPIDS     CLEAR     70  65  85 SW3       30.01S
6HR MIN TEMP:  70; 6HR MAX TEMP:  76;

COLDWATER      CLEAR     74  68  80 W3        30.03S
6HR MIN TEMP:  74; 6HR MAX TEMP:  80;

HOLLAND        CLEAR     69  65  86 W3        30.03S
6HR MIN TEMP:  69; 6HR MAX TEMP:  77;

GRAND RAPIDS   PTCLDY    72  65  78 SW6       30.02S
6HR MIN TEMP:  72; 6HR MAX TEMP:  78;

KALAMAZOO      CLEAR     72  65  78 W7        30.03S
6HR MIN TEMP:  72; 6HR MAX TEMP:  79;

MARSHALL       CLEAR     74  68  81 CALM      30.02S
6HR MIN TEMP:  74; 6HR MAX TEMP:  79;

MUSKEGON       PTCLDY    69  63  81 W6        30.02F HAZE
6HR MIN TEMP:  69; 6HR MAX TEMP:  77;

$$
MIZ016>042-310100-
NORTHERN LOWER MICHIGAN

CITY           SKY/WX    TMP DP  RH WIND       PRES   REMARKS
ALPENA         CLEAR     69  64  84 CALM      29.97S
6HR MIN TEMP:  69; 6HR MAX TEMP:  81;

BEAVER ISLAND  PTCLDY    67  62  84 SW10G16   29.96F
6HR MIN TEMP:  67; 6HR MAX TEMP:  71;

BELLAIRE       CLEAR     72  64  76 CALM      29.98S
6HR MIN TEMP:  72; 6HR MAX TEMP:  77;

CADILLAC       CLEAR     70  64  81 W5        30.02S
CHARLEVOIX     CLEAR     67  64  89 SW5       30.00F
6HR MIN TEMP:  67; 6HR MAX TEMP:  74;

FRANKFORT      CLEAR     66  63  89 SW3       30.00S
GAYLORD        CLEAR     72  65  78 W5        30.00S
6HR MIN TEMP:  72; 6HR MAX TEMP:  77;

GRAYLING       CLEAR     71  64  77 CALM      30.01S
6HR MIN TEMP:  71; 6HR MAX TEMP:  79;

HARBOR SPRINGS CLEAR     67  64  88 W5        29.97F
HOUGHTON LAKE  PTCLDY    72  64  76 SW5       30.01S
6HR MIN TEMP:  72; 6HR MAX TEMP:  78;

MANISTEE       CLEAR     66  61  82 SW3       30.01F
OSCODA         CLEAR     72  66  80 S3        29.98S
6HR MIN TEMP:  72; 6HR MAX TEMP:  77;

PELLSTON       CLEAR     68  63  84 W6        29.97
6HR MIN TEMP:  68; 6HR MAX TEMP:  77;

TRAVERSE CITY  PTCLDY    74  62  66 SW5       29.98S
6HR MIN TEMP:  74; 6HR MAX TEMP:  79;

$$
MIZ007>008-015-310100-
EASTERN UPPER MICHIGAN

CITY           SKY/WX    TMP DP  RH WIND       PRES   REMARKS
KINROSS        CLEAR     66  63  88 SW6       29.95S
6HR MIN TEMP:  66; 6HR MAX TEMP:  75;

MACKINAC ISLAN PTCLDY    66  63  91 SW13      29.96S
6HR MIN TEMP:  66; 6HR MAX TEMP:  71;

NEWBERRY       MOCLDY    66  62  87 S12       29.94S
6HR MIN TEMP:  66; 6HR MAX TEMP:  75;

S. S. MARIE    CLEAR     68  61  78 SW7       29.93F
6HR MIN TEMP:  68; 6HR MAX TEMP:  77;

$$
MIZ004>006-011>014-085-310100-
CENTRAL UPPER MICHIGAN

CITY           SKY/WX    TMP DP  RH WIND       PRES   REMARKS
MANISTIQUE     PTCLDY    64  62  92 SW9       29.94S FOG
6HR MIN TEMP:  64; 6HR MAX TEMP:  70;

ESCANABA       PTCLDY    68  61  77 S12       29.92F
6HR MIN TEMP:  68; 6HR MAX TEMP:  72;

MENOMINEE      CLEAR     72  63  73 SW8       29.94F
6HR MIN TEMP:  72; 6HR MAX TEMP:  75;

SAWYER-GWINN   CLEAR     77  63  61 SW9       29.92S
$$
MIZ001>003-009>011-084-310100-
WESTERN UPPER MICHIGAN

CITY           SKY/WX    TMP DP  RH WIND       PRES   REMARKS
IRON MOUNTAIN  CLEAR     73  64  73 S6        29.93F
6HR MIN TEMP:  73; 6HR MAX TEMP:  81;

HOUGHTON       CLEAR     74  63  68 W7        29.87S
6HR MIN TEMP:  74; 6HR MAX TEMP:  83;

IRONWOOD       CLEAR     77  64  65 S9        29.87S
6HR MIN TEMP:  77; 6HR MAX TEMP:  82;

$$

ABBREVIATIONS USED IN REMARKS
   TC - TEMPERATURE IN CELSIUS
  WCI - WIND CHILL INDEX
   HX - HEAT INDEX
  VSB - VISIBILITY



USA.gov is the U.S. government's official web portal to all federal, state and local government web resources and services.